Regional Weather Roundup
Issued by NWS Charleston, WV

Home | Current Version | Previous Version | Graphics & Text | Print | Product List | Glossary On
Versions: 1 2 3 4 5 6 7 8 9 10 11 12 13 14 15 16 17 18 19 20 21 22 23 24 25 26 27 28 29 30 31 32 33 34 35 36 37 38 39 40 41 42 43 44 45 46 47 48 49 50
000
ASUS41 KRLX 181010
RWRRLX
West Virginia Regional Weather Roundup
National Weather Service Charleston WV
600 AM EDT THU SEP 18 2014

Note: "fair" indicates few or no clouds below 12,000 feet with no
significant weather and/or obstructions to visibility.

WVZ003-181100-
Northern Panhandle of West Virginia

CITY           SKY/WX    TMP DP  RH WIND       PRES   REMARKS
WHEELING       MOCLDY    52  49  89 N7        30.03R
$$

WVZ009-181100-
Northwest West Virginia

CITY           SKY/WX    TMP DP  RH WIND       PRES   REMARKS
PARKERSBURG    CLEAR     51  48  89 CALM      30.04R
$$

WVZ006-181100-
Western West Virginia

CITY           SKY/WX    TMP DP  RH WIND       PRES   REMARKS
HUNTINGTON     CLOUDY    54  53  97 CALM      30.00S
$$

WVZ015-181100-
West Central West Virginia

CITY           SKY/WX    TMP DP  RH WIND       PRES   REMARKS
CHARLESTON     MOCLDY    56  56 100 CALM      30.00S FOG
$$

WVZ031-181100-
North Central West Virginia

CITY           SKY/WX    TMP DP  RH WIND       PRES   REMARKS
CLARKSBURG     FOG       52  51  97 CALM      30.01R VSB 1/4
MORGANTOWN     FOG       53  49  86 N3        30.02S VSB 1/4
$$

WVZ035-042-045-181100-
South Central West Virginia

CITY           SKY/WX    TMP DP  RH WIND       PRES   REMARKS
BECKLEY        FOG       57  55  93 CALM      30.03S VSB 1/4
BLUEFIELD      FOG       55  53  93 W6        30.04R VSB 1/4
LEWISBURG      CLOUDY    54  52  94 CALM      30.02S
$$

WVZ047-181100-
Northern Mountains of West Virginia

CITY           SKY/WX    TMP DP  RH WIND       PRES   REMARKS
ELKINS         CLOUDY    51  49  92 CALM      30.03R
$$

WVZ052-181100-
Eastern Panhandle of West Virginia

CITY           SKY/WX    TMP DP  RH WIND       PRES   REMARKS
MARTINSBURG    MOCLDY    54  48  80 CALM      29.98S
PETERSBURG     CLOUDY    51  49  93 CALM      30.01S FOG
$$



USA.gov is the U.S. government's official web portal to all federal, state and local government web resources and services.